CW9790 Weather Reports


Display with metric or nautical units.
time (UTC)temp
F
wind
direction
speed
MPH
gust
MPH
rain 1hr
in
rain 24hr
in
rain mn
in
humidity
%
barometer
mb
20260505165016 77 248 2.0 7.0 0.00 0.00 0.00 75 1007.6
20260505164017 77 135 2.0 6.0 0.00 0.00 0.00 77 1007.4
20260505163017 75 225 3.0 7.0 0.00 0.00 0.00 80 1007.2
20260505162016 74 180 3.0 9.0 0.00 0.00 0.00 86 1007.3
20260505161017 73 225 2.0 9.0 0.00 0.00 0.00 89 1007.2
20260505153017 69 135 2.0 6.0 0.00 0.00 0.00 94 1006.7
20260505152016 69 203 2.0 7.0 0.00 0.00 0.00 94 1006.9
20260505151037 69 180 2.0 9.0 0.00 0.00 0.00 94 1007.0
20260505125016 68 135 3.0 7.0 0.00 0.00 0.00 93 1006.4
20260505124016 68 135 2.0 7.0 0.00 0.00 0.00 93 1006.4
20260505123016 68 158 2.0 9.0 0.00 0.00 0.00 93 1006.2
20260505122017 68 158 2.0 6.0 0.00 0.00 0.00 93 1006.0
20260505121016 68 135 1.0 6.0 0.00 0.00 0.00 93 1006.0
20260505120016 68 135 1.0 5.0 0.00 0.00 0.00 93 1005.9
20260505115016 68 180 2.0 6.0 0.00 0.00 0.00 93 1006.0
20260505114037 68 158 2.0 9.0 0.00 0.00 0.00 93 1006.0
20260505113016 68 135 2.0 7.0 0.00 0.00 0.00 92 1005.9
20260505112016 68 135 2.0 6.0 0.00 0.00 0.00 92 1006.0
20260505111016 68 113 2.0 5.0 0.00 0.00 0.00 92 1006.0
20260505102016 68 158 2.0 9.0 0.00 0.00 0.00 92 1006.1
20260505101016 68 180 3.0 9.0 0.00 0.00 0.00 92 1006.1
20260505100018 68 135 3.0 14.0 0.00 0.00 0.00 91 1006.2
20260505095018 68 203 2.0 8.0 0.00 0.00 0.00 91 1006.1
20260505094018 68 158 2.0 8.0 0.00 0.00 0.00 91 1006.3
20260505093038 68 135 2.0 5.0 0.00 0.00 0.00 91 1006.4
20260505092018 68 158 2.0 4.0 0.00 0.00 0.00 91 1006.4
20260505091018 68 135 3.0 7.0 0.00 0.00 0.00 91 1006.3
20260505090017 68 158 3.0 11.0 0.00 0.00 0.00 91 1006.3
20260505085017 68 203 2.0 6.0 0.00 0.00 0.00 91 1006.5
20260505084018 68 135 2.0 9.0 0.00 0.00 0.00 91 1006.6
20260505083018 68 135 2.0 11.0 0.00 0.00 0.00 91 1006.6
20260505082018 68 135 3.0 8.0 0.00 0.00 0.00 91 1006.9
20260505081017 68 135 3.0 10.0 0.00 0.00 0.00 91 1006.8
20260505080018 68 158 3.0 13.0 0.00 0.00 0.00 91 1007.0
20260505075017 68 180 3.0 14.0 0.00 0.00 0.00 91 1006.8
20260505074038 68 135 3.0 11.0 0.00 0.00 0.00 90 1007.1
20260505073017 69 180 3.0 14.0 0.00 0.00 0.00 90 1007.2
20260505072017 68 158 3.0 9.0 0.00 0.00 0.00 90 1007.4
20260505071018 69 180 3.0 10.0 0.00 0.00 0.00 90 1007.1
20260505070038 69 135 3.0 8.0 0.00 0.00 0.00 90 1007.3
20260505065017 68 135 2.0 10.0 0.00 0.00 0.00 90 1007.5
20260505064019 68 180 3.0 9.0 0.00 0.00 0.00 90 1007.4
20260505063017 68 180 2.0 5.0 0.00 0.00 0.00 89 1007.6
20260505062017 68 135 2.0 7.0 0.00 0.00 0.00 88 1007.9
20260505061017 68 135 2.0 6.0 0.00 0.00 0.00 87 1007.9
20260505060018 68 135 1.0 6.0 0.00 0.00 0.00 86 1007.9
20260505055017 68 158 2.0 5.0 0.00 0.00 0.00 86 1007.7
20260505054059 68 158 1.0 6.0 0.00 0.00 0.00 85 1007.7
20260505053017 69 135 1.0 7.0 0.00 0.00 0.00 84 1008.0
20260505052017 69 135 1.0 5.0 0.00 0.00 0.00 83 1007.8
20260505051018 69 180 1.0 5.0 0.00 0.00 0.00 83 1007.9
20260505041016 70 158 1.0 7.0 0.00 0.00 0.00 81 1007.7
20260505040016 70 135 1.0 5.0 0.00 0.00 0.00 81 1007.7
20260505035137 70 158 1.0 4.0 0.00 0.00 0.00 81 1007.7
20260505034016 70 158 2.0 7.0 0.00 0.00 0.00 80 1007.6
20260505033036 70 180 1.0 7.0 0.00 0.00 0.00 80 1007.5
20260505032016 70 158 2.0 7.0 0.00 0.00 0.00 80 1007.2
20260505031016 70 135 2.0 8.0 0.00 0.00 0.00 80 1007.1
20260505030016 70 135 2.0 7.0 0.00 0.00 0.00 80 1007.1
20260505025016 71 158 1.0 9.0 0.00 0.00 0.00 79 1007.1
20260505024016 71 135 2.0 6.0 0.00 0.00 0.00 79 1007.0
20260505023016 71 158 1.0 5.0 0.00 0.00 0.00 79 1007.2
20260505022016 71 158 1.0 6.0 0.00 0.00 0.00 78 1007.1
20260505021016 71 203 1.0 5.0 0.00 0.00 0.00 77 1007.1
20260505020016 72 135 1.0 4.0 0.00 0.00 0.00 76 1007.1
20260505015036 72 180 1.0 6.0 0.00 0.00 0.00 75 1007.0
20260505014016 73 158 1.0 4.0 0.00 0.00 0.00 75 1007.1
20260505013016 73 135 1.0 4.0 0.00 0.00 0.00 73 1007.0
20260505012016 74 180 1.0 4.0 0.00 0.00 0.00 72 1007.0
20260505011016 74 158 1.0 5.0 0.00 0.00 0.00 71 1007.0
20260505010018 75 135 2.0 7.0 0.00 0.00 0.00 70 1006.9
20260505005018 75 180 2.0 5.0 0.00 0.00 0.00 69 1007.1
20260505004018 76 158 2.0 6.0 0.00 0.00 0.00 68 1007.3
20260505003018 77 135 2.0 12.0 0.00 0.00 0.00 67 1007.4
20260505002018 78 135 3.0 10.0 0.00 0.00 0.00 65 1007.3
20260505001017 79 135 2.0 7.0 0.00 0.00 0.00 64 1007.5
20260505000016 79 135 3.0 9.0 0.00 0.00 0.00 63 1007.3
20260504235018 79 135 3.0 9.0 0.00 0.00 0.00 62 1007.3
20260504234017 80 135 3.0 10.0 0.00 0.00 0.00 61 1007.2
20260504233017 80 135 4.0 13.0 0.00 0.00 0.00 61 1007.4
20260504232017 81 135 3.0 11.0 0.00 0.00 0.00 60 1007.5
20260504231017 81 135 4.0 11.0 0.00 0.00 0.00 59 1007.6
20260504230017 81 135 4.0 12.0 0.00 0.00 0.00 59 1007.6
20260504225018 82 135 4.0 15.0 0.00 0.00 0.00 57 1007.9
20260504224017 82 158 3.0 16.0 0.00 0.00 0.00 59 1007.9
20260504223017 81 135 3.0 10.0 0.00 0.00 0.00 59 1007.9
20260504222037 81 135 5.0 16.0 0.00 0.00 0.00 58 1008.1
20260504221017 82 135 4.0 11.0 0.00 0.00 0.00 58 1008.4
20260504220017 83 135 3.0 10.0 0.00 0.00 0.00 56 1008.5
20260504215017 83 135 3.0 9.0 0.00 0.00 0.00 56 1008.6
20260504214017 82 158 3.0 10.0 0.00 0.00 0.00 58 1008.5
20260504213017 82 135 4.0 13.0 0.00 0.00 0.00 58 1008.7
20260504212018 82 135 3.0 9.0 0.00 0.00 0.00 58 1008.8
20260504211017 81 158 4.0 13.0 0.00 0.00 0.00 59 1008.7
20260504210017 81 135 5.0 13.0 0.00 0.00 0.00 58 1008.9
20260504205017 82 135 3.0 10.0 0.00 0.00 0.00 58 1009.2
20260504204017 82 135 4.0 14.0 0.00 0.00 0.00 57 1009.4
20260504203017 83 135 4.0 10.0 0.00 0.00 0.00 58 1009.7
20260504202037 83 180 4.0 12.0 0.00 0.00 0.00 57 1009.8
20260504201017 82 135 5.0 13.0 0.00 0.00 0.00 59 1009.9
20260504200017 82 158 3.0 10.0 0.00 0.00 0.00 60 1010.1
20260504195017 82 135 5.0 12.0 0.00 0.00 0.00 57 1010.3
20260504194017 82 135 4.0 12.0 0.00 0.00 0.00 57 1010.5
20260504193017 82 135 4.0 14.0 0.00 0.00 0.00 58 1010.5
20260504192017 82 135 4.0 12.0 0.00 0.00 0.00 59 1010.7
20260504191016 81 135 5.0 13.0 0.00 0.00 0.00 58 1010.6
20260504190017 81 135 4.0 14.0 0.00 0.00 0.00 61 1010.8
20260504185038 81 135 3.0 9.0 0.00 0.00 0.00 61 1010.7
20260504184016 80 135 4.0 13.0 0.00 0.00 0.00 63 1010.8
20260504183017 79 225 4.0 11.0 0.00 0.00 0.00 64 1010.8
20260504182018 78 135 4.0 13.0 0.00 0.00 0.00 64 1011.2
20260504181016 78 203 4.0 13.0 0.00 0.00 0.00 63 1011.4
20260504180018 78 135 5.0 13.0 0.00 0.00 0.00 64 1011.6
20260504175016 78 113 4.0 11.0 0.00 0.00 0.00 64 1011.5
20260504174016 77 158 5.0 13.0 0.00 0.00 0.00 66 1011.5
20260504173016 76 158 4.0 16.0 0.00 0.00 0.00 66 1011.6
20260504172038 75 225 4.0 14.0 0.00 0.00 0.00 68 1011.6
20260504171016 75 135 5.0 13.0 0.00 0.00 0.00 68 1011.6